Wind_Speed
47 49 49 50 50 52 54 55 56 57 58 58 59 60 61 61 61 62 62 62 61 61 60 59 58 56 55 55 55 56 57 58
53 53 54 55 55 56 58 59 61 62 63 64 65 66 67 67 68 67 67 66 66 64 63 62 59 57 55 57 58 58 61 64
57 58 58 59 60 61 62 63 65 67 67 66 66 67 66 66 64 64 64 64 62 62 61 60 59 59 56 58 62 63 62 63
55 54 57 60 61 62 63 63 62 63 64 64 64 63 64 63 62 61 60 60 59 58 59 59 59 60 60 63 65 63 61 62
57 57 58 58 58 57 58 58 58 58 58 59 59 60 59 58 58 59 59 59 59 59 61 65 66 64 61 60 60 59 60 61
52 52 53 52 52 53 54 55 56 56 57 57 56 57 57 57 59 59 58 59 60 62 60 59 59 58 55 53 54 57 58 56
52 51 51 50 50 51 52 53 54 54 54 55 54 53 52 53 56 57 56 56 54 53 52 52 51 48 47 47 45 46 45 45
52 49 46 44 44 45 45 46 46 48 48 48 48 48 49 49 48 48 49 49 49 46 44 42 40 39 40 38 39 41 45 42
44 39 35 33 34 36 37 39 40 41 42 42 42 42 41 40 42 42 42 43 41 38 35 36 37 34 34 29 31 32 33 39
33 35 35 33 32 32 33 34 34 34 36 36 36 36 35 35 33 35 38 37 37 35 33 35 33 30 30 30 30 32 38 40
30 29 28 28 29 28 30 32 33 33 33 33 31 30 30 29 30 31 33 36 36 34 36 36 32 31 29 29 32 35 36 45
28 28 27 29 28 30 32 32 32 31 32 29 28 29 27 28 27 27 27 28 27 30 31 32 32 33 31 30 31 34 36 38
30 33 31 30 30 31 33 34 34 34 30 27 27 26 26 26 26 27 27 28 27 25 26 26 25 27 31 31 32 36 35 38
34 31 32 32 32 33 36 37 29 28 27 27 26 25 27 26 26 26 25 27 30 29 29 26 25 23 22 23 23 27 25 25
35 34 30 30 29 37 38 31 26 24 25 26 27 27 27 29 28 26 24 26 27 28 28 26 24 23 23 24 25 27 20 18
38 33 28 30 31 38 36 28 25 24 25 27 28 29 30 31 31 29 28 27 26 26 25 24 23 22 19 16 19 24 23 16
32 28 27 29 27 28 28 27 26 26 27 27 29 32 33 33 31 31 29 28 26 24 25 23 22 22 22 19 17 10 7 11
23 25 27 24 25 27 28 29 30 31 31 30 30 29 28 32 34 30 28 27 25 24 22 21 23 22 22 22 21 22 20 15
21 21 21 23 25 28 30 32 32 32 32 31 31 32 28 26 30 33 31 25 22 23 23 21 19 20 19 19 19 17 18 20
Wind_Direction
277 277 276 276 276 275 275 276 277 278 278 279 281 282 283 283 283 284 284 284 284 282 281 279 279 278 279 280 279 281 281 275
276 277 277 277 277 277 277 278 278 278 279 280 281 282 282 283 283 283 284 283 283 282 280 279 279 279 281 276 276 277 274 271
276 276 276 277 277 277 277 277 277 278 280 280 280 281 281 282 281 281 281 280 280 279 278 277 276 278 278 279 275 273 272 271
275 277 277 276 276 276 277 277 277 277 279 280 281 282 281 281 280 279 277 276 274 273 273 273 272 271 270 271 273 274 273 271
285 281 279 278 277 278 278 279 279 279 279 279 279 278 278 277 277 276 275 275 275 274 273 273 273 274 276 274 273 272 271 271
283 282 281 281 280 279 278 278 277 277 277 277 276 276 275 274 276 276 276 276 276 280 284 283 281 280 276 272 270 267 264 261
281 281 281 280 279 279 279 279 279 279 278 279 280 281 282 284 284 286 288 287 288 287 284 281 277 273 272 274 270 267 265 265
285 286 287 286 285 284 283 282 282 282 282 283 284 287 287 287 288 287 287 286 286 287 283 277 276 275 272 273 274 269 260 259
284 287 289 290 289 284 282 282 283 283 284 285 285 285 286 287 286 287 287 289 292 290 283 282 279 277 278 276 285 274 270 262
289 290 292 291 286 284 283 285 286 287 287 288 289 288 289 290 290 293 295 298 298 297 294 293 281 283 289 287 292 279 274 276
292 288 284 287 287 291 292 291 290 290 290 290 288 288 291 293 297 298 302 301 296 301 303 299 296 294 296 292 286 285 284 282
292 285 282 278 282 287 295 291 289 294 297 290 287 289 294 297 303 305 307 308 308 305 305 300 291 292 291 287 285 285 281 281
289 288 288 294 287 288 292 294 287 291 290 289 289 290 292 298 306 306 312 323 322 320 321 320 298 281 281 279 287 292 275 276
289 296 284 284 291 286 290 295 290 288 289 286 286 288 288 294 296 301 313 321 327 327 326 328 324 307 296 299 307 301 285 285
296 288 285 281 284 286 288 298 294 290 288 286 285 285 289 289 288 291 304 314 322 329 326 328 322 316 312 309 318 325 299 279
295 290 281 280 276 278 290 293 289 286 290 292 291 290 287 286 284 287 292 302 308 316 322 327 326 328 338 337 316 316 312 319
280 284 279 281 282 285 289 291 295 295 292 292 294 292 289 287 282 281 285 292 299 308 311 320 324 331 335 346 6 319 320 307
271 276 280 282 285 286 290 294 294 293 291 287 285 294 300 303 287 279 285 286 290 295 300 303 311 317 326 333 344 349 357 9
274 278 278 283 290 293 295 295 296 294 292 289 287 290 298 301 302 291 276 282 289 290 292 295 299 305 310 321 330 339 346 349
Height
5757 5753 5752 5751 5750 5748 5747 5746 5745 5743 5741 5739 5738 5736 5734 5732 5731 5730 5728 5727 5726 5726 5724 5724 5723 5722 5720 5718 5717 5716 5716 5716
5745 5742 5740 5738 5737 5735 5734 5734 5732 5731 5729 5727 5724 5722 5720 5718 5716 5714 5713 5712 5711 5711 5709 5708 5707 5706 5705 5702 5701 5701 5701 5699
5732 5730 5728 5725 5724 5721 5720 5719 5718 5717 5715 5713 5711 5708 5706 5704 5702 5699 5698 5696 5695 5694 5693 5692 5691 5690 5688 5687 5685 5683 5685 5683
5717 5715 5714 5712 5710 5707 5706 5705 5703 5701 5700 5699 5696 5694 5692 5690 5687 5685 5682 5680 5679 5678 5677 5676 5674 5672 5671 5669 5667 5666 5667 5667
5703 5701 5699 5698 5696 5694 5692 5691 5689 5688 5685 5683 5681 5679 5676 5674 5672 5670 5667 5665 5663 5661 5659 5657 5655 5653 5652 5650 5649 5648 5648 5651
5689 5686 5685 5684 5682 5680 5678 5677 5675 5674 5672 5669 5667 5665 5662 5659 5657 5654 5652 5649 5647 5645 5643 5640 5638 5636 5635 5633 5631 5630 5630 5631
5679 5675 5673 5672 5669 5667 5665 5664 5663 5660 5659 5656 5654 5651 5649 5646 5643 5640 5637 5635 5633 5630 5628 5625 5622 5620 5618 5617 5614 5613 5613 5614
5667 5664 5662 5660 5658 5656 5654 5653 5651 5649 5647 5645 5643 5640 5637 5634 5631 5627 5625 5622 5618 5615 5613 5610 5608 5606 5606 5603 5601 5600 5601 5602
5658 5655 5652 5650 5649 5647 5645 5643 5641 5639 5637 5635 5632 5629 5626 5623 5619 5616 5613 5610 5606 5603 5600 5599 5597 5596 5594 5591 5591 5589 5590 5591
5650 5648 5645 5643 5641 5638 5636 5635 5633 5630 5628 5626 5623 5620 5617 5614 5611 5607 5605 5601 5597 5593 5591 5589 5586 5585 5583 5582 5580 5579 5580 5579
5642 5641 5639 5636 5634 5632 5630 5627 5625 5622 5620 5617 5614 5612 5609 5607 5604 5601 5597 5593 5589 5585 5583 5579 5576 5575 5573 5572 5571 5570 5568 5566
5635 5634 5632 5630 5628 5626 5623 5620 5617 5615 5612 5609 5607 5605 5602 5600 5597 5594 5591 5587 5582 5578 5575 5572 5569 5567 5565 5563 5561 5559 5556 5552
5629 5628 5625 5623 5620 5618 5616 5613 5610 5607 5605 5602 5600 5598 5596 5594 5591 5589 5585 5581 5576 5572 5568 5565 5563 5560 5558 5555 5553 5548 5545 5542
5622 5620 5617 5615 5613 5611 5609 5606 5602 5600 5598 5596 5594 5592 5590 5587 5586 5584 5581 5577 5572 5566 5562 5559 5555 5551 5549 5546 5543 5539 5534 5533
5614 5612 5609 5608 5606 5604 5601 5598 5595 5593 5591 5589 5588 5586 5583 5582 5580 5579 5576 5572 5568 5563 5558 5555 5551 5547 5543 5539 5535 5531 5528 5526
5605 5603 5601 5601 5599 5597 5594 5592 5589 5588 5586 5584 5582 5580 5578 5576 5574 5572 5570 5567 5564 5560 5557 5552 5549 5545 5541 5536 5532 5528 5524 5519
5597 5596 5595 5594 5592 5590 5588 5585 5583 5581 5579 5577 5575 5574 5571 5569 5567 5565 5563 5561 5559 5556 5554 5551 5548 5544 5540 5536 5532 5528 5522 5516
5589 5589 5589 5587 5585 5583 5581 5578 5576 5574 5571 5570 5568 5566 5563 5561 5558 5557 5556 5555 5553 5551 5549 5547 5545 5542 5538 5534 5530 5527 5523 5520
5584 5584 5583 5581 5579 5577 5574 5572 5569 5566 5564 5562 5560 5558 5556 5554 5552 5550 5548 5548 5547 5545 5543 5542 5540 5538 5536 5533 5530 5526 5523 5520